| time (UTC) | temp C | wind direction | speed KPH | gust KPH | rain 1hr cm | rain 24hr cm | rain mn cm | humidity % | barometer mb |
| 20260505022934 | 13 | 223 | 1.6 | 3.2 | 0.00 | 0.00 | 0.00 | 85 | 1013.0 |
| 20260505022432 | 14 | 203 | 6.4 | 8.0 | 0.00 | 0.00 | 0.00 | 84 | 1013.0 |
| 20260505021929 | 14 | 168 | 6.4 | 8.0 | 0.00 | 0.00 | 0.00 | 84 | 1013.1 |
| 20260505021425 | 14 | 57 | 6.4 | 9.7 | 0.00 | 0.00 | 0.00 | 83 | 1012.9 |
| 20260505020921 | 14 | 19 | 4.8 | 4.8 | 0.00 | 0.00 | 0.00 | 82 | 1012.9 |
| 20260505020416 | 14 | 352 | 6.4 | 8.0 | 0.00 | 0.00 | 0.00 | 81 | 1012.9 |
| 20260505015913 | 15 | 154 | 9.7 | 11.3 | 0.00 | 0.00 | 0.00 | 80 | 1013.1 |
| 20260505015411 | 15 | 116 | 6.4 | 9.7 | 0.00 | 0.00 | 0.00 | 79 | 1012.8 |
| 20260505014908 | 15 | 0 | 4.8 | 8.0 | 0.00 | 0.00 | 0.00 | 78 | 1013.1 |
| 20260505014405 | 15 | 118 | 11.3 | 14.5 | 0.00 | 0.00 | 0.00 | 77 | 1013.0 |
| 20260505013902 | 15 | 131 | 9.7 | 12.9 | 0.00 | 0.00 | 0.00 | 76 | 1012.9 |
| 20260505013358 | 15 | 245 | 4.8 | 4.8 | 0.00 | 0.00 | 0.00 | 76 | 1013.0 |
| 20260505012857 | 15 | 80 | 8.0 | 11.3 | 0.00 | 0.00 | 0.00 | 76 | 1012.9 |
| 20260505012354 | 15 | 202 | 4.8 | 4.8 | 0.00 | 0.00 | 0.00 | 75 | 1012.6 |
| 20260505011850 | 15 | 187 | 6.4 | 8.0 | 0.00 | 0.00 | 0.00 | 74 | 1012.8 |
| 20260505011347 | 15 | 127 | 6.4 | 9.7 | 0.00 | 0.00 | 0.00 | 74 | 1012.9 |
| 20260505010843 | 15 | 114 | 6.4 | 8.0 | 0.00 | 0.00 | 0.00 | 73 | 1012.7 |
| 20260505010339 | 16 | 79 | 6.4 | 8.0 | 0.00 | 0.00 | 0.00 | 72 | 1012.7 |
| 20260505005836 | 16 | 139 | 8.0 | 11.3 | 0.00 | 0.00 | 0.00 | 72 | 1012.7 |
| 20260505005332 | 16 | 111 | 4.8 | 9.7 | 0.00 | 0.00 | 0.00 | 71 | 1012.5 |
| 20260505004830 | 16 | 226 | 4.8 | 8.0 | 0.00 | 0.00 | 0.00 | 71 | 1012.5 |
| 20260505004326 | 16 | 220 | 4.8 | 4.8 | 0.00 | 0.00 | 0.00 | 71 | 1012.5 |
| 20260505003824 | 16 | 272 | 6.4 | 9.7 | 0.00 | 0.00 | 0.00 | 71 | 1012.4 |
| 20260505003321 | 16 | 96 | 9.7 | 12.9 | 0.00 | 0.00 | 0.00 | 71 | 1012.2 |
| 20260505002817 | 16 | 76 | 8.0 | 11.3 | 0.00 | 0.00 | 0.00 | 70 | 1012.4 |
| 20260505002314 | 16 | 83 | 9.7 | 11.3 | 0.00 | 0.00 | 0.00 | 70 | 1012.0 |
| 20260505001812 | 16 | 98 | 6.4 | 8.0 | 0.00 | 0.00 | 0.00 | 70 | 1012.2 |
| 20260505001309 | 16 | 119 | 4.8 | 8.0 | 0.00 | 0.00 | 0.00 | 69 | 1012.3 |
| 20260505000806 | 16 | 163 | 8.0 | 11.3 | 0.00 | 0.00 | 0.00 | 70 | 1012.3 |
| 20260505000304 | 16 | 138 | 4.8 | 8.0 | 0.00 | 0.00 | 0.00 | 70 | 1012.2 |
| 20260504235800 | 16 | 58 | 6.4 | 8.0 | 0.00 | 0.00 | 0.00 | 71 | 1012.3 |
| 20260504235256 | 16 | 191 | 8.0 | 11.3 | 0.00 | 0.00 | 0.00 | 71 | 1012.3 |
| 20260504234754 | 16 | 120 | 6.4 | 9.7 | 0.00 | 0.00 | 0.00 | 71 | 1012.1 |
| 20260504234252 | 16 | 101 | 6.4 | 9.7 | 0.00 | 0.00 | 0.00 | 71 | 1012.0 |
| 20260504233747 | 16 | 222 | 3.2 | 3.2 | 0.00 | 0.00 | 0.00 | 71 | 1012.2 |
| 20260504233243 | 16 | 140 | 6.4 | 8.0 | 0.00 | 0.00 | 0.00 | 72 | 1012.2 |
| 20260504232740 | 16 | 110 | 9.7 | 11.3 | 0.00 | 0.00 | 0.00 | 72 | 1012.1 |
| 20260504232237 | 16 | 90 | 9.7 | 11.3 | 0.00 | 0.00 | 0.00 | 72 | 1012.1 |
| 20260504231734 | 16 | 199 | 6.4 | 9.7 | 0.00 | 0.00 | 0.00 | 72 | 1012.0 |
| 20260504231231 | 16 | 142 | 9.7 | 9.7 | 0.00 | 0.00 | 0.00 | 72 | 1012.1 |
| 20260504230726 | 16 | 139 | 4.8 | 8.0 | 0.00 | 0.00 | 0.00 | 72 | 1012.1 |
| 20260504230225 | 16 | 104 | 6.4 | 8.0 | 0.00 | 0.00 | 0.00 | 72 | 1012.2 |
| 20260504225724 | 16 | 46 | 4.8 | 8.0 | 0.00 | 0.00 | 0.00 | 72 | 1012.4 |
| 20260504225220 | 16 | 165 | 9.7 | 12.9 | 0.00 | 0.00 | 0.00 | 72 | 1012.1 |
| 20260504224717 | 16 | 119 | 4.8 | 4.8 | 0.00 | 0.00 | 0.00 | 73 | 1012.1 |
| 20260504224214 | 16 | 215 | 3.2 | 3.2 | 0.00 | 0.00 | 0.00 | 72 | 1012.1 |
| 20260504223710 | 16 | 212 | 3.2 | 3.2 | 0.00 | 0.00 | 0.00 | 73 | 1012.0 |
| 20260504223206 | 16 | 237 | 3.2 | 4.8 | 0.00 | 0.00 | 0.00 | 73 | 1012.0 |
| 20260504222703 | 16 | 261 | 0.0 | 1.6 | 0.00 | 0.00 | 0.00 | 72 | 1012.1 |
| 20260504222200 | 16 | 30 | 6.4 | 8.0 | 0.00 | 0.00 | 0.00 | 71 | 1012.3 |
| 20260504221657 | 16 | 239 | 4.8 | 8.0 | 0.00 | 0.00 | 0.00 | 71 | 1012.0 |
| 20260504221155 | 16 | 238 | 4.8 | 4.8 | 0.00 | 0.00 | 0.00 | 70 | 1012.1 |
| 20260504220651 | 16 | 213 | 6.4 | 8.0 | 0.00 | 0.00 | 0.00 | 70 | 1012.1 |
| 20260504220149 | 16 | 206 | 4.8 | 8.0 | 0.00 | 0.00 | 0.00 | 70 | 1012.0 |
| 20260504215644 | 16 | 153 | 8.0 | 11.3 | 0.00 | 0.00 | 0.00 | 69 | 1012.1 |
| 20260504215142 | 17 | 101 | 9.7 | 16.1 | 0.00 | 0.00 | 0.00 | 68 | 1011.9 |
| 20260504214638 | 17 | 53 | 4.8 | 4.8 | 0.00 | 0.00 | 0.00 | 68 | 1012.1 |
| 20260504214134 | 17 | 201 | 4.8 | 8.0 | 0.00 | 0.00 | 0.00 | 68 | 1012.0 |
| 20260504213631 | 17 | 262 | 6.4 | 8.0 | 0.00 | 0.00 | 0.00 | 68 | 1012.1 |
| 20260504213128 | 17 | 65 | 6.4 | 8.0 | 0.00 | 0.00 | 0.00 | 69 | 1011.9 |
| 20260504212624 | 17 | 228 | 4.8 | 8.0 | 0.00 | 0.00 | 0.00 | 69 | 1012.1 |
| 20260504212121 | 17 | 60 | 9.7 | 16.1 | 0.00 | 0.00 | 0.00 | 68 | 1012.1 |
| 20260504211619 | 17 | 87 | 6.4 | 9.7 | 0.00 | 0.00 | 0.00 | 69 | 1012.0 |
| 20260504211115 | 17 | 94 | 8.0 | 9.7 | 0.00 | 0.00 | 0.00 | 68 | 1012.0 |
| 20260504210613 | 17 | 129 | 16.1 | 22.5 | 0.00 | 0.00 | 0.00 | 67 | 1011.9 |
| 20260504210109 | 17 | 153 | 9.7 | 14.5 | 0.00 | 0.00 | 0.00 | 66 | 1012.0 |
| 20260504205606 | 17 | 118 | 9.7 | 11.3 | 0.00 | 0.00 | 0.00 | 66 | 1011.9 |
| 20260504205104 | 17 | 93 | 11.3 | 14.5 | 0.00 | 0.00 | 0.00 | 65 | 1012.0 |
| 20260504204602 | 18 | 114 | 11.3 | 12.9 | 0.00 | 0.00 | 0.00 | 63 | 1012.0 |
| 20260504204100 | 18 | 323 | 4.8 | 9.7 | 0.00 | 0.00 | 0.00 | 63 | 1012.2 |
| 20260504203559 | 17 | 96 | 9.7 | 14.5 | 0.00 | 0.00 | 0.00 | 63 | 1012.1 |
| 20260504203056 | 18 | 46 | 11.3 | 14.5 | 0.00 | 0.00 | 0.00 | 63 | 1012.3 |
| 20260504202551 | 18 | 146 | 8.0 | 9.7 | 0.00 | 0.00 | 0.00 | 63 | 1012.1 |
| 20260504202048 | 17 | 63 | 11.3 | 14.5 | 0.00 | 0.00 | 0.00 | 64 | 1012.1 |
| 20260504201545 | 18 | 120 | 11.3 | 14.5 | 0.00 | 0.00 | 0.00 | 63 | 1012.3 |
| 20260504201043 | 18 | 131 | 6.4 | 9.7 | 0.00 | 0.00 | 0.00 | 63 | 1012.1 |
| 20260504200539 | 18 | 72 | 9.7 | 12.9 | 0.00 | 0.00 | 0.00 | 62 | 1012.5 |
| 20260504200036 | 18 | 122 | 9.7 | 14.5 | 0.00 | 0.00 | 0.00 | 62 | 1012.3 |
| 20260504195532 | 18 | 40 | 3.2 | 4.8 | 0.00 | 0.00 | 0.00 | 63 | 1012.4 |
| 20260504195029 | 18 | 101 | 9.7 | 12.9 | 0.00 | 0.00 | 0.00 | 62 | 1012.4 |
| 20260504194525 | 18 | 96 | 11.3 | 16.1 | 0.00 | 0.00 | 0.00 | 61 | 1012.4 |
| 20260504194020 | 18 | 114 | 4.8 | 8.0 | 0.00 | 0.00 | 0.00 | 63 | 1012.3 |
| 20260504193518 | 18 | 136 | 11.3 | 12.9 | 0.00 | 0.00 | 0.00 | 63 | 1012.4 |
| 20260504193017 | 18 | 55 | 3.2 | 8.0 | 0.00 | 0.00 | 0.00 | 64 | 1012.6 |
| 20260504192514 | 18 | 176 | 1.6 | 3.2 | 0.00 | 0.00 | 0.00 | 62 | 1012.5 |
| 20260504192012 | 18 | 292 | 4.8 | 4.8 | 0.00 | 0.00 | 0.00 | 64 | 1012.7 |
| 20260504191510 | 18 | 143 | 8.0 | 12.9 | 0.00 | 0.00 | 0.00 | 63 | 1012.6 |
| 20260504191005 | 18 | 152 | 8.0 | 12.9 | 0.00 | 0.00 | 0.00 | 61 | 1012.7 |
| 20260504190501 | 18 | 178 | 8.0 | 11.3 | 0.00 | 0.00 | 0.00 | 61 | 1012.7 |
| 20260504185958 | 19 | 135 | 4.8 | 8.0 | 0.00 | 0.00 | 0.00 | 61 | 1012.9 |
| 20260504185455 | 19 | 154 | 6.4 | 9.7 | 0.00 | 0.00 | 0.00 | 60 | 1012.9 |
| 20260504184952 | 19 | 40 | 8.0 | 9.7 | 0.00 | 0.00 | 0.00 | 61 | 1012.9 |
| 20260504184447 | 19 | 183 | 6.4 | 9.7 | 0.00 | 0.00 | 0.00 | 60 | 1013.1 |
| 20260504183943 | 19 | 245 | 6.4 | 9.7 | 0.00 | 0.00 | 0.00 | 59 | 1012.9 |
| 20260504183440 | 18 | 191 | 6.4 | 11.3 | 0.00 | 0.00 | 0.00 | 61 | 1013.0 |
| 20260504182938 | 19 | 105 | 4.8 | 14.5 | 0.00 | 0.00 | 0.00 | 61 | 1013.1 |
| 20260504182435 | 18 | 136 | 8.0 | 9.7 | 0.00 | 0.00 | 0.00 | 62 | 1013.2 |
| 20260504181932 | 18 | 161 | 11.3 | 16.1 | 0.00 | 0.00 | 0.00 | 60 | 1013.3 |
| 20260504181429 | 19 | 99 | 8.0 | 16.1 | 0.00 | 0.00 | 0.00 | 59 | 1013.2 |
| 20260504180928 | 18 | 341 | 6.4 | 11.3 | 0.00 | 0.00 | 0.00 | 60 | 1013.4 |
| 20260504180426 | 18 | 194 | 6.4 | 9.7 | 0.00 | 0.00 | 0.00 | 59 | 1013.3 |
| 20260504175924 | 20 | 145 | 4.8 | 8.0 | 0.00 | 0.00 | 0.00 | 59 | 1013.5 |
| 20260504175421 | 20 | 151 | 3.2 | 8.0 | 0.00 | 0.00 | 0.00 | 61 | 1013.5 |
| 20260504174918 | 20 | 185 | 4.8 | 4.8 | 0.00 | 0.00 | 0.00 | 59 | 1013.7 |
| 20260504174416 | 20 | 72 | 6.4 | 9.7 | 0.00 | 0.00 | 0.00 | 60 | 1013.4 |
| 20260504173913 | 20 | 159 | 3.2 | 8.0 | 0.00 | 0.00 | 0.00 | 59 | 1013.5 |
| 20260504173409 | 19 | 60 | 8.0 | 12.9 | 0.00 | 0.00 | 0.00 | 58 | 1013.7 |
| 20260504172907 | 19 | 141 | 4.8 | 4.8 | 0.00 | 0.00 | 0.00 | 61 | 1013.9 |
| 20260504172403 | 19 | 245 | 8.0 | 11.3 | 0.00 | 0.00 | 0.00 | 61 | 1014.0 |
| 20260504171859 | 20 | 119 | 8.0 | 11.3 | 0.00 | 0.00 | 0.00 | 58 | 1013.6 |
| 20260504171356 | 20 | 37 | 8.0 | 9.7 | 0.00 | 0.00 | 0.00 | 53 | 1013.9 |
| 20260504170853 | 20 | 32 | 6.4 | 9.7 | 0.00 | 0.00 | 0.00 | 58 | 1013.7 |
| 20260504170350 | 19 | 191 | 6.4 | 8.0 | 0.00 | 0.00 | 0.00 | 58 | 1013.9 |
| 20260504160309 | 19 | 165 | 8.0 | 9.7 | 0.00 | 0.00 | 0.00 | 60 | 1014.5 |
| 20260504150734 | 18 | 211 | 8.0 | 12.9 | 0.00 | 0.00 | 0.00 | 47 | 1015.1 |
| 20260504150231 | 18 | 131 | 8.0 | 11.3 | 0.00 | 0.00 | 0.00 | 47 | 1014.8 |
| 20260504141200 | 17 | 128 | 9.7 | 11.3 | 0.00 | 0.00 | 0.00 | 46 | 1015.4 |
| 20260504140657 | 17 | 143 | 9.7 | 11.3 | 0.00 | 0.00 | 0.00 | 46 | 1015.4 |
| 20260504140152 | 17 | 125 | 12.9 | 17.7 | 0.00 | 0.00 | 0.00 | 45 | 1015.3 |
| 20260504130620 | 16 | 109 | 8.0 | 9.7 | 0.00 | 0.00 | 0.00 | 53 | 1015.7 |
| 20260504130117 | 16 | 227 | 4.8 | 8.0 | 0.00 | 0.00 | 0.00 | 54 | 1015.8 |
| 20260504110509 | 11 | 234 | 3.2 | 3.2 | 0.00 | 0.00 | 0.00 | 76 | 1016.7 |
| 20260504100431 | 9 | 211 | 1.6 | 3.2 | 0.00 | 0.00 | 0.00 | 79 | 1016.7 |
| 20260504081824 | 10 | 234 | 3.2 | 3.2 | 0.00 | 0.00 | 0.00 | 75 | 1016.7 |
| 20260504081320 | 10 | 286 | 1.6 | 3.2 | 0.00 | 0.00 | 0.00 | 75 | 1016.8 |
| 20260504080816 | 10 | 231 | 3.2 | 3.2 | 0.00 | 0.00 | 0.00 | 74 | 1016.8 |
| 20260504080314 | 10 | 226 | 3.2 | 3.2 | 0.00 | 0.00 | 0.00 | 74 | 1016.4 |
| 20260504070240 | 9 | 222 | 3.2 | 3.2 | 0.00 | 0.00 | 0.00 | 72 | 1016.3 |
| 20260504060201 | 10 | 155 | 4.8 | 4.8 | 0.00 | 0.00 | 0.00 | 69 | 1016.0 |
| 20260504050629 | 10 | 223 | 4.8 | 4.8 | 0.00 | 0.00 | 0.00 | 66 | 1015.9 |
| 20260504050126 | 10 | 237 | 3.2 | 3.2 | 0.00 | 0.00 | 0.00 | 65 | 1015.9 |
| 20260504045623 | 10 | 199 | 4.8 | 4.8 | 0.00 | 0.00 | 0.00 | 65 | 1015.6 |
| 20260504045118 | 10 | 251 | 4.8 | 4.8 | 0.00 | 0.00 | 0.00 | 65 | 1015.8 |
| 20260504044616 | 10 | 215 | 3.2 | 4.8 | 0.00 | 0.00 | 0.00 | 66 | 1015.7 |
| 20260504044113 | 10 | 301 | 3.2 | 3.2 | 0.00 | 0.00 | 0.00 | 65 | 1015.6 |
| 20260504043610 | 10 | 232 | 3.2 | 3.2 | 0.00 | 0.00 | 0.00 | 66 | 1016.0 |
| 20260504043107 | 10 | 172 | 4.8 | 4.8 | 0.00 | 0.00 | 0.00 | 66 | 1015.9 |
| 20260504042604 | 10 | 235 | 3.2 | 3.2 | 0.00 | 0.00 | 0.00 | 67 | 1015.9 |
| 20260504042101 | 10 | 207 | 4.8 | 4.8 | 0.00 | 0.00 | 0.00 | 65 | 1015.7 |
| 20260504041556 | 10 | 238 | 3.2 | 3.2 | 0.00 | 0.00 | 0.00 | 64 | 1015.9 |
| 20260504041053 | 10 | 225 | 3.2 | 3.2 | 0.00 | 0.00 | 0.00 | 64 | 1015.8 |
| 20260504040551 | 10 | 331 | 0.0 | 0.0 | 0.00 | 0.00 | 0.00 | 64 | 1015.8 |
| 20260504040047 | 10 | 232 | 1.6 | 3.2 | 0.00 | 0.00 | 0.00 | 63 | 1015.7 |
| 20260504035544 | 10 | 242 | 4.8 | 4.8 | 0.00 | 0.00 | 0.00 | 62 | 1015.5 |
| 20260504035040 | 10 | 250 | 1.6 | 3.2 | 0.00 | 0.00 | 0.00 | 61 | 1015.7 |
| 20260504034538 | 10 | 243 | 1.6 | 1.6 | 0.00 | 0.00 | 0.00 | 61 | 1015.7 |
| 20260504034035 | 10 | 240 | 1.6 | 1.6 | 0.00 | 0.00 | 0.00 | 60 | 1015.4 |
| 20260504033533 | 10 | 240 | 3.2 | 3.2 | 0.00 | 0.00 | 0.00 | 59 | 1015.3 |
| 20260504033030 | 9 | 241 | 1.6 | 3.2 | 0.00 | 0.00 | 0.00 | 60 | 1015.4 |
| 20260504032527 | 9 | 256 | 0.0 | 0.0 | 0.00 | 0.00 | 0.00 | 60 | 1015.3 |
| 20260504032024 | 9 | 246 | 0.0 | 0.0 | 0.00 | 0.00 | 0.00 | 59 | 1015.3 |
| 20260504031521 | 9 | 252 | 0.0 | 0.0 | 0.00 | 0.00 | 0.00 | 58 | 1015.4 |
| 20260504031017 | 9 | 251 | 0.0 | 0.0 | 0.00 | 0.00 | 0.00 | 58 | 1015.6 |
| 20260504030514 | 9 | 253 | 0.0 | 0.0 | 0.00 | 0.00 | 0.00 | 58 | 1015.4 |
| 20260504030010 | 9 | 287 | 0.0 | 0.0 | 0.00 | 0.00 | 0.00 | 57 | 1015.3 |
| 20260504025507 | 8 | 252 | 0.0 | 0.0 | 0.00 | 0.00 | 0.00 | 58 | 1015.5 |
| 20260504025004 | 8 | 252 | 0.0 | 0.0 | 0.00 | 0.00 | 0.00 | 56 | 1015.5 |
| 20260504024502 | 8 | 264 | 0.0 | 0.0 | 0.00 | 0.00 | 0.00 | 57 | 1015.3 |
| 20260504023959 | 8 | 255 | 0.0 | 0.0 | 0.00 | 0.00 | 0.00 | 58 | 1015.4 |
| 20260504023455 | 8 | 261 | 0.0 | 0.0 | 0.00 | 0.00 | 0.00 | 59 | 1015.5 |
| 20260504022950 | 8 | 255 | 0.0 | 0.0 | 0.00 | 0.00 | 0.00 | 57 | 1015.5 |